Location: Kaseke
(18.0171°S, 31.0526°E)
Time: 12:49:52
(UTC+00:00)

COSMO-SKYMED 1 - Pass Details

Date: 14 July 2020
Orbit: 621 x 623 km, 97.9° (Epoch: 08 August)

Event Time Altitude Azimuth Distance (km) Brightness Sun altitude
Rises 03:15:45 0° 155° (SSE) 2,922 6.1 -16.9°
Reaches altitude 10° 03:18:08 10° 146° (SE) 2,009 5.4 -16.3°
Maximum altitude 03:22:06 34° 81° (E) 1,036 4.4 -15.4°
Drops below altitude 10° 03:26:02 10° 15° (NNE) 1,988 5.6 -14.5°
Sets 03:28:22 0° 6° (N) 2,887 6.3 -14.0°
